This is the latest recevied weather packets stored in our database for station/object W2OBX. If no packets are shown the sender has not sent any weather packets the latest 10 day(s).
| Time | Temp. | Humidity | Pressure | Rain* | Wind** | Luminosity | Snow |
|---|---|---|---|---|---|---|---|
| 1778017397 | 23.33° C | 50% | 1012 hPa | 0 mm | - | 53 W/m² | - |
| 1778017094 | 23.89° C | 50% | 1012.1 hPa | 0 mm | - | 50 W/m² | - |
| 1778016792 | 23.89° C | 48% | 1011.9 hPa | 0 mm | - | 42 W/m² | - |
| 1778016488 | 23.89° C | 48% | 1011.9 hPa | 0 mm | - | 57 W/m² | - |
| 1778016185 | 23.89° C | 48% | 1012 hPa | 0 mm | - | 63 W/m² | - |
| 1778015881 | 23.89° C | 50% | 1012 hPa | 0 mm | - | 66 W/m² | - |
| 1778015579 | 23.89° C | 50% | 1011.9 hPa | 0 mm | - | 72 W/m² | - |
| 1778015275 | 23.89° C | 51% | 1012 hPa | 0 mm | - | 75 W/m² | - |
| 1778014973 | 23.89° C | 50% | 1012.3 hPa | 0 mm | - | 69 W/m² | - |
| 1778014669 | 23.89° C | 49% | 1012.1 hPa | 0 mm | - | 219 W/m² | - |
| 1778014368 | 23.89° C | 47% | 1012.2 hPa | 0 mm | - | 95 W/m² | - |
| 1778014064 | 23.89° C | 48% | 1012.2 hPa | 0 mm | - | 81 W/m² | - |
| 1778013762 | 23.89° C | 48% | 1012.4 hPa | 0 mm | - | 103 W/m² | - |
| 1778013459 | 23.89° C | 46% | 1012.3 hPa | 0 mm | - | 82 W/m² | - |
| 1778013156 | 23.89° C | 46% | 1012.3 hPa | 0 mm | - | 88 W/m² | - |
| 1778012851 | 23.89° C | 48% | 1012.5 hPa | 0 mm | - | 90 W/m² | - |
| 1778012548 | 23.89° C | 46% | 1012.4 hPa | 0 mm | - | 95 W/m² | - |
| 1778012244 | 23.89° C | 45% | 1012.5 hPa | 0 mm | - | 100 W/m² | - |
| 1778011942 | 23.89° C | 46% | 1012.4 hPa | 0 mm | - | 110 W/m² | - |
| 1778011640 | 24.44° C | 49% | 1012.5 hPa | 0 mm | - | 121 W/m² | - |
| 1778011337 | 24.44° C | 45% | 1012.5 hPa | 0 mm | - | 119 W/m² | - |
| 1778011032 | 24.44° C | 47% | 1012.7 hPa | 0 mm | - | 136 W/m² | - |
| 1778010730 | 25° C | 44% | 1013 hPa | 0 mm | - | 190 W/m² | - |
| 1778010427 | 25° C | 44% | 1012.9 hPa | 0 mm | - | 96 W/m² | - |
| 1778010123 | 25.56° C | 43% | 1013 hPa | 0 mm | - | 223 W/m² | - |
* Rain latest hour (hover to see other rain measurements)
** Current wind speed in m/s (hover to see current wind gust speed)